Home   Weather   Batesville   Past weeks
Flag for USA

Past Weather in Batesville, Mississippi, USA — Yesterday and Last 2 Weeks

Now
61 °F

Passing clouds.


Feels Like: 61 °F
Forecast: 69 / 61 °F
Wind: No wind

Location: University-Oxford Airport

Current Time: Oct 14, 2019 at 9:04:17 pm

Latest Report: Oct 14, 2019 at 8:15 pm


Visibility: 10 mi

Pressure: 30.09 "Hg

Humidity: 77%

Dew Point: 54 °F

Location of BatesvilleLocation

Past Weather in Batesville — Graph

°F

Batesville Temperature Yesterday

Maximum temperature yesterday: 63 °F (at 3:35 pm)
Minimum temperature yesterday: 37 °F (at 5:35 am)
Average temperature yesterday: 50 °F

High & Low Weather Summary for the Past Weeks

 TemperatureHumidityPressure
High99 °F (Oct 3, 2:15 pm)100% (Sep 30, 7:35 am)30.25 "Hg (Sep 30, 7:35 am)
Low37 °F (Oct 13, 5:35 am)30% (Oct 5, 2:35 pm)29.95 "Hg (Oct 5, 4:15 pm)
Average68 °F74%30.08 "Hg
* Reported Sep 29 7:15 pm — Oct 14 7:55 pm, Batesville. Weather by CustomWeather, © 2019

Note: Actual official high and low records may vary slightly from our data, if they occured in-between our weather recording intervals... More about our weather records

Advertising

Batesville Weather History for the Previous 24 Hours

Scroll right to see more
 ConditionsComfort  
Time TempWeatherWind HumidityBarometerVisibility
7:55 pm
Mon, Oct 14
61 °FOvercast.No wind77%30.07 "Hg10 mi
7:35 pm61 °FOvercast.No wind77%30.07 "Hg10 mi
6:55 pm63 °FPassing clouds.5 mph73%30.07 "Hg10 mi
6:35 pm64 °FPassing clouds.3 mph64%30.08 "Hg10 mi
6:15 pm64 °FOvercast.3 mph68%30.07 "Hg9 mi
5:55 pm66 °FOvercast.6 mph60%30.08 "Hg10 mi
5:35 pm66 °FOvercast.No wind56%30.08 "Hg10 mi
5:15 pm66 °FOvercast.5 mph56%30.08 "Hg10 mi
4:55 pm66 °FOvercast.No wind60%30.08 "Hg10 mi
4:35 pm68 °FOvercast.No wind53%30.09 "Hg9 mi
4:15 pm68 °FOvercast.No wind53%30.08 "Hg10 mi
3:55 pm68 °FOvercast.No wind49%30.09 "Hg10 mi
3:35 pm68 °FOvercast.No wind49%30.09 "Hg10 mi
3:15 pm68 °FOvercast.3 mph46%30.09 "Hg10 mi
2:55 pm68 °FOvercast.3 mph43%30.09 "Hg10 mi
2:35 pm68 °FOvercast.3 mph43%30.09 "Hg10 mi
2:15 pm68 °FOvercast.5 mph43%30.08 "Hg10 mi
1:35 pm66 °FOvercast.5 mph46%30.11 "Hg10 mi
1:15 pm68 °FOvercast.5 mph43%30.12 "Hg10 mi
12:55 pm68 °FOvercast.6 mph49%30.12 "Hg9 mi
12:35 pm66 °FOvercast.7 mph49%30.13 "Hg10 mi
12:15 pm66 °FOvercast.7 mph52%30.13 "Hg9 mi
11:55 am64 °FOvercast.6 mph52%30.15 "Hg10 mi
11:35 am64 °FOvercast.6 mph56%30.15 "Hg10 mi
11:15 am63 °FOvercast.No wind59%30.15 "Hg10 mi
10:55 am61 °FOvercast.No wind63%30.15 "Hg9 mi
10:35 am59 °FOvercast.No wind68%30.15 "Hg10 mi
10:15 am57 °FOvercast.3 mph72%30.16 "Hg10 mi
9:35 am54 °FOvercast.No wind94%30.16 "Hg10 mi
9:15 am52 °FPartly sunny.No wind100%30.16 "Hg10 mi
8:55 am50 °FSunny.No wind100%30.15 "Hg10 mi
8:35 am50 °FPassing clouds.No wind94%30.15 "Hg10 mi
8:15 am48 °FPassing clouds.No wind94%30.15 "Hg10 mi
7:55 am46 °FSunny.No wind93%30.14 "Hg10 mi
7:35 am45 °FSunny.No wind100%30.13 "Hg10 mi
7:15 am45 °FSunny.No wind93%30.13 "Hg10 mi
6:55 am45 °FClear.No wind93%30.12 "Hg10 mi
6:35 am45 °FClear.No wind93%30.12 "Hg10 mi
6:15 am45 °FClear.No wind93%30.12 "Hg10 mi
5:55 am45 °FClear.No wind93%30.12 "Hg10 mi
5:35 am45 °FClear.No wind93%30.12 "Hg10 mi
5:15 am43 °FClear.No wind100%30.11 "Hg10 mi
4:55 am43 °FClear.No wind100%30.11 "Hg10 mi
4:35 am45 °FClear.No wind93%30.11 "Hg10 mi
4:15 am45 °FClear.No wind93%30.10 "Hg10 mi
3:55 am43 °FClear.No wind100%30.09 "Hg10 mi
3:35 am43 °FClear.No wind100%30.10 "Hg10 mi
2:55 am45 °FClear.No wind93%30.10 "Hg10 mi
2:35 am45 °FClear.No wind93%30.10 "Hg10 mi
2:15 am45 °FClear.No wind93%30.11 "Hg10 mi
1:55 am45 °FClear.No wind100%30.11 "Hg10 mi
1:35 am45 °FClear.No wind100%30.11 "Hg10 mi
12:55 am46 °FClear.No wind93%30.10 "Hg10 mi
12:35 am48 °FFog.No wind94%30.10 "Hg2 mi
12:15 am48 °FClear.No wind94%30.10 "Hg10 mi
11:55 pm
Sun, Oct 13
48 °FClear.No wind94%30.10 "Hg10 mi
11:35 pm48 °FClear.No wind94%30.10 "Hg10 mi
11:15 pm48 °FClear.No wind94%30.10 "Hg10 mi
10:55 pm50 °FClear.No wind94%30.10 "Hg10 mi
10:35 pm50 °FClear.3 mph88%30.09 "Hg10 mi
10:15 pm50 °FClear.3 mph94%30.09 "Hg10 mi
9:55 pm50 °FClear.No wind94%30.09 "Hg10 mi
9:35 pm52 °FClear.No wind88%30.09 "Hg10 mi
9:15 pm52 °FClear.3 mph88%30.09 "Hg10 mi
Weather by CustomWeather, © 2019

See weather overview